�������l�o���
Date,Time,MP-1(��Sv/h),MP-2(��Sv/h),MP-3(��Sv/h),MP-4(��Sv/h),MP-5(��Sv/h),MP-6(��Sv/h),MP-7(��Sv/h),MP-8(��Sv/h),����,����(m/s),���J
2017/08/13,00:00,0.934,1.469,0.975,1.774,1.207,0.512,0.941,0.867,�k�k��,6.5,�L
2017/08/13,00:10,0.935,1.472,0.975,1.773,1.206,0.510,0.938,0.869,�k�k��,6.5,�L
2017/08/13,00:20,0.935,1.471,0.974,1.773,1.207,0.508,0.940,0.866,�k�k��,7.4,�L
2017/08/13,00:30,0.934,1.473,0.975,1.768,1.206,0.511,0.940,0.870,�k�k��,7.4,�L
2017/08/13,00:40,0.935,1.469,0.969,1.771,1.206,0.511,0.939,0.869,�k�k��,8.1,�L
2017/08/13,00:50,0.933,1.473,0.974,1.771,1.205,0.511,0.939,0.869,�k�k��,8.0,�L
2017/08/13,01:00,0.935,1.473,0.975,1.771,1.206,0.511,0.939,0.871,�k�k��,7.1,�L
2017/08/13,01:10,0.935,1.472,0.973,1.773,1.206,0.510,0.938,0.871,�k�k��,7.8,��
2017/08/13,01:20,0.936,1.470,0.974,1.771,1.205,0.511,0.937,0.869,�k�k��,7.4,�L
2017/08/13,01:30,0.934,1.470,0.975,1.773,1.206,0.511,0.939,0.870,�k�k��,8.1,��
2017/08/13,01:40,0.934,1.475,0.976,1.771,1.206,0.511,0.939,0.870,�k�k��,7.6,��
2017/08/13,01:50,0.933,1.472,0.974,1.771,1.204,0.511,0.940,0.869,�k�k��,7.5,��
2017/08/13,02:00,0.934,1.472,0.975,1.771,1.204,0.510,0.939,0.869,�k�k��,6.8,��
2017/08/13,02:10,0.934,1.469,0.978,1.772,1.206,0.511,0.939,0.871,�k�k��,7.6,��
2017/08/13,02:20,0.932,1.471,0.975,1.776,1.207,0.510,0.938,0.869,�k�k��,6.9,��
2017/08/13,02:30,0.934,1.470,0.976,1.769,1.204,0.509,0.939,0.869,�k�k��,7.0,�L
2017/08/13,02:40,0.933,1.472,0.977,1.771,1.205,0.511,0.939,0.870,�k�k��,6.7,�L
2017/08/13,02:50,0.934,1.470,0.977,1.771,1.206,0.510,0.940,0.870,�k�k��,7.5,�L
2017/08/13,03:00,0.934,1.471,0.973,1.770,1.204,0.509,0.941,0.869,�k�k��,7.0,�L
2017/08/13,03:10,0.932,1.472,0.976,1.770,1.205,0.510,0.941,0.870,�k�k��,7.6,�L
2017/08/13,03:20,0.933,1.475,0.979,1.771,1.204,0.511,0.939,0.869,�k�k��,7.1,�L
2017/08/13,03:30,0.934,1.473,0.974,1.773,1.204,0.511,0.941,0.869,�k�k��,6.9,��
2017/08/13,03:40,0.934,1.471,0.976,1.769,1.206,0.510,0.940,0.870,�k�k��,7.4,��
2017/08/13,03:50,0.934,1.475,0.977,1.771,1.201,0.511,0.940,0.870,�k�k��,8.1,��
2017/08/13,04:00,0.938,1.473,0.977,1.772,1.206,0.509,0.941,0.869,�k,7.2,��
2017/08/13,04:10,0.936,1.473,0.978,1.773,1.206,0.510,0.939,0.870,�k,8.2,��
2017/08/13,04:20,0.933,1.472,0.977,1.774,1.206,0.510,0.942,0.869,�k�k��,8.1,��
2017/08/13,04:30,0.936,1.473,0.977,1.773,1.207,0.510,0.940,0.868,�k�k��,8.3,��
2017/08/13,04:40,0.936,1.472,0.979,1.773,1.205,0.510,0.940,0.868,�k,7.3,��
2017/08/13,04:50,0.934,1.473,0.976,1.770,1.204,0.510,0.941,0.873,�k�k��,7.5,��
2017/08/13,05:00,0.934,1.473,0.975,1.774,1.203,0.510,0.939,0.869,�k,7.0,��
2017/08/13,05:10,0.932,1.472,0.976,1.772,1.205,0.510,0.941,0.869,�k�k��,7.5,��
2017/08/13,05:20,0.934,1.476,0.976,1.773,1.206,0.510,0.940,0.870,�k�k��,7.4,��
2017/08/13,05:30,0.935,1.469,0.975,1.773,1.206,0.511,0.940,0.869,�k�k��,8.1,�L
2017/08/13,05:40,0.935,1.472,0.977,1.774,1.207,0.511,0.940,0.870,�k�k��,6.6,�L
2017/08/13,05:50,0.932,1.471,0.976,1.774,1.207,0.510,0.940,0.869,�k,5.9,�L
2017/08/13,06:00,0.934,1.473,0.978,1.772,1.206,0.510,0.940,0.869,�k�k��,6.3,�L
2017/08/13,06:10,0.936,1.475,0.977,1.774,1.206,0.511,0.941,0.871,�k,6.0,�L
2017/08/13,06:20,0.935,1.474,0.978,1.772,1.206,0.511,0.941,0.870,�k,6.2,�L
2017/08/13,06:30,0.934,1.476,0.978,1.775,1.205,0.510,0.940,0.869,�k�k��,6.0,�L
2017/08/13,06:40,0.934,1.472,0.976,1.773,1.207,0.511,0.940,0.867,�k�k��,5.4,�L
2017/08/13,06:50,0.934,1.473,0.979,1.773,1.208,0.512,0.941,0.869,�k�k��,5.6,�L
2017/08/13,07:00,0.934,1.474,0.977,1.775,1.207,0.511,0.939,0.868,�k�k��,5.7,�L
2017/08/13,07:10,0.933,1.473,0.973,1.775,1.206,0.511,0.939,0.870,�k�k��,5.2,�L
2017/08/13,07:20,0.935,1.474,0.977,1.773,1.208,0.511,0.942,0.869,�k�k��,5.6,�L
2017/08/13,07:30,0.932,1.473,0.977,1.772,1.209,0.511,0.940,0.871,�k�k��,5.7,�L
2017/08/13,07:40,0.934,1.471,0.975,1.773,1.208,0.511,0.939,0.870,�k�k��,5.3,�L
2017/08/13,07:50,0.930,1.471,0.974,1.773,1.211,0.511,0.940,0.869,�k,5.4,�L
2017/08/13,08:00,0.933,1.473,0.974,1.772,1.205,0.510,0.938,0.868,�k,4.3,�L
2017/08/13,08:10,0.932,1.470,0.976,1.772,1.207,0.510,0.940,0.867,�k,5.6,�L
2017/08/13,08:20,0.934,1.470,0.973,1.769,1.204,0.509,0.938,0.868,�k,4.6,�L
2017/08/13,08:30,0.932,1.468,0.974,1.769,1.206,0.510,0.938,0.868,�k,5.1,�L
2017/08/13,08:40,0.933,1.467,0.974,1.768,1.204,0.510,0.940,0.868,�k�k��,6.3,�L
2017/08/13,08:50,0.933,1.467,0.974,1.769,1.205,0.510,0.938,0.866,�k,5.7,�L
2017/08/13,09:00,0.934,1.467,0.972,1.772,1.205,0.511,0.937,0.869,�k,5.3,�L
2017/08/13,09:10,0.933,1.467,0.974,1.771,1.206,0.511,0.939,0.868,�k,5.1,�L
2017/08/13,09:20,0.933,1.468,0.973,1.770,1.204,0.509,0.939,0.867,�k,5.1,�L
2017/08/13,09:30,0.932,1.468,0.971,1.772,1.207,0.510,0.938,0.870,�k,5.4,�L
2017/08/13,09:40,0.934,1.465,0.972,1.769,1.204,0.511,0.941,0.868,�k,5.1,�L
2017/08/13,09:50,0.933,1.468,0.972,1.771,1.207,0.511,0.940,0.869,�k,5.9,�L
2017/08/13,10:00,0.934,1.470,0.975,1.772,1.207,0.509,0.940,0.868,�k,6.1,�L
2017/08/13,10:10,0.937,1.471,0.975,1.774,1.206,0.511,0.941,0.869,�k,5.5,�L
2017/08/13,10:20,0.936,1.468,0.974,1.770,1.205,0.512,0.940,0.868,�k,4.9,�L
2017/08/13,10:30,0.937,1.470,0.972,1.771,1.207,0.510,0.941,0.869,�k,4.2,��
2017/08/13,10:40,0.937,1.468,0.974,1.771,1.210,0.511,0.939,0.866,�k,4.4,��
2017/08/13,10:50,0.937,1.470,0.974,1.774,1.208,0.511,0.940,0.868,�k,4.6,��
2017/08/13,11:00,0.936,1.471,0.975,1.772,1.208,0.511,0.940,0.868,�k�k��,4.0,��
2017/08/13,11:10,0.939,1.471,0.974,1.775,1.207,0.510,0.941,0.867,�k,4.7,��
2017/08/13,11:20,0.938,1.470,0.975,1.770,1.204,0.510,0.942,0.868,�k,4.9,��
2017/08/13,11:30,0.936,1.473,0.975,1.772,1.207,0.509,0.942,0.868,�k,5.5,��
2017/08/13,11:40,0.937,1.475,0.976,1.774,1.208,0.513,0.942,0.868,�k,5.3,��
2017/08/13,11:50,0.938,1.474,0.980,1.775,1.208,0.510,0.943,0.867,�k�k��,4.9,��
2017/08/13,12:00,0.941,1.476,0.980,1.776,1.209,0.512,0.941,0.869,�k�k��,5.9,��
2017/08/13,12:10,0.941,1.480,0.981,1.773,1.213,0.512,0.942,0.869,�k�k��,6.2,��
2017/08/13,12:20,0.942,1.478,0.978,1.772,1.212,0.512,0.944,0.869,�k�k��,6.4,��
2017/08/13,12:30,0.942,1.478,0.979,1.773,1.214,0.512,0.943,0.868,�k�k��,6.2,��
2017/08/13,12:40,0.943,1.479,0.979,1.774,1.212,0.512,0.945,0.868,�k�k��,5.9,��
2017/08/13,12:50,0.941,1.479,0.978,1.777,1.211,0.513,0.946,0.868,�k�k��,6.3,��
2017/08/13,13:00,0.943,1.480,0.980,1.776,1.215,0.512,0.944,0.869,�k�k��,6.0,��
2017/08/13,13:10,0.942,1.479,0.981,1.776,1.216,0.513,0.944,0.869,�k�k��,5.9,��
2017/08/13,13:20,0.941,1.481,0.979,1.778,1.216,0.511,0.943,0.869,�k�k��,4.9,��
2017/08/13,13:30,0.943,1.482,0.979,1.775,1.216,0.512,0.944,0.870,�k�k��,5.3,��
2017/08/13,13:40,0.944,1.482,0.982,1.775,1.219,0.514,0.944,0.870,�k�k��,5.4,��
2017/08/13,13:50,0.943,1.486,0.982,1.775,1.218,0.513,0.943,0.869,�k�k��,5.0,��
2017/08/13,14:00,0.945,1.485,0.983,1.776,1.216,0.514,0.945,0.870,�k�k��,5.2,��
2017/08/13,14:10,0.947,1.484,0.985,1.778,1.217,0.515,0.944,0.869,�k�k��,4.9,��
2017/08/13,14:20,0.945,1.484,0.982,1.779,1.218,0.513,0.945,0.870,�k�k��,4.9,��
2017/08/13,14:30,0.944,1.485,0.982,1.776,1.219,0.514,0.946,0.870,�k�k��,4.8,��
2017/08/13,14:40,0.947,1.487,0.982,1.779,1.217,0.514,0.945,0.869,�k�k��,5.1,��
2017/08/13,14:50,0.944,1.483,0.980,1.777,1.220,0.513,0.943,0.870,�k�k��,4.8,��
2017/08/13,15:00,0.945,1.484,0.982,1.780,1.219,0.513,0.943,0.870,�k�k��,4.6,��
2017/08/13,15:10,0.948,1.488,0.983,1.779,1.221,0.512,0.944,0.871,�k�k��,4.4,��
2017/08/13,15:20,0.947,1.489,0.984,1.782,1.221,0.512,0.945,0.872,�k�k��,4.5,��
2017/08/13,15:30,0.946,1.487,0.981,1.782,1.222,0.513,0.944,0.869,�k�k��,4.6,��
2017/08/13,15:40,0.947,1.487,0.981,1.780,1.220,0.513,0.944,0.870,�k�k��,4.8,��
2017/08/13,15:50,0.948,1.486,0.984,1.779,1.222,0.514,0.945,0.871,�k�k��,5.2,��
2017/08/13,16:00,0.945,1.487,0.985,1.782,1.220,0.514,0.943,0.869,�k�k��,5.1,��
2017/08/13,16:10,0.949,1.488,0.982,1.782,1.218,0.514,0.946,0.869,�k�k��,5.3,��
2017/08/13,16:20,0.946,1.488,0.984,1.781,1.218,0.512,0.946,0.870,�k�k��,4.5,��
2017/08/13,16:30,0.947,1.488,0.982,1.782,1.218,0.512,0.944,0.871,�k�k��,3.9,��
2017/08/13,16:40,0.947,1.488,0.981,1.783,1.221,0.512,0.946,0.870,�k�k��,4.1,��
2017/08/13,16:50,0.949,1.488,0.982,1.781,1.221,0.514,0.945,0.872,�k�k��,3.5,��
2017/08/13,17:00,0.948,1.486,0.982,1.784,1.222,0.512,0.946,0.870,�k,3.1,��
2017/08/13,17:10,0.947,1.487,0.980,1.784,1.223,0.514,0.946,0.869,�k,3.5,��
2017/08/13,17:20,0.946,1.486,0.983,1.786,1.220,0.513,0.945,0.871,�k,3.4,��
2017/08/13,17:30,0.947,1.490,0.981,1.785,1.223,0.513,0.947,0.871,�k,3.7,��
2017/08/13,17:40,0.945,1.490,0.984,1.784,1.224,0.514,0.945,0.871,�k,3.3,��
2017/08/13,17:50,0.947,1.490,0.984,1.785,1.221,0.512,0.945,0.871,�k,3.4,��
2017/08/13,18:00,0.946,1.488,0.986,1.784,1.219,0.513,0.946,0.871,�k,2.5,��
2017/08/13,18:10,0.946,1.488,0.985,1.785,1.223,0.514,0.946,0.873,�k,2.6,��
2017/08/13,18:20,0.946,1.489,0.985,1.786,1.225,0.513,0.945,0.870,�k,2.5,��
2017/08/13,18:30,0.947,1.490,0.985,1.786,1.222,0.513,0.945,0.871,�k,2.9,��
2017/08/13,18:40,0.946,1.493,0.986,1.787,1.223,0.513,0.946,0.871,�k,2.3,��
2017/08/13,18:50,0.946,1.491,0.986,1.784,1.223,0.514,0.945,0.871,�k�k��,3.2,��
2017/08/13,19:00,0.946,1.492,0.986,1.785,1.222,0.514,0.945,0.873,�k�k��,2.5,��
2017/08/13,19:10,0.947,1.491,0.984,1.784,1.222,0.512,0.947,0.871,�k�k��,2.3,�L
2017/08/13,19:20,0.947,1.489,0.988,1.786,1.224,0.513,0.945,0.873,�k�k��,2.6,�L
2017/08/13,19:30,0.947,1.494,0.985,1.783,1.225,0.514,0.945,0.872,�k�k��,2.6,�L
2017/08/13,19:40,0.948,1.492,0.987,1.786,1.222,0.514,0.945,0.872,�k�k��,2.6,�L
2017/08/13,19:50,0.950,1.493,0.985,1.785,1.223,0.514,0.944,0.874,�k��,2.6,�L
2017/08/13,20:00,0.948,1.491,0.985,1.785,1.224,0.514,0.946,0.871,�k��,3.1,�L
2017/08/13,20:10,0.948,1.492,0.986,1.787,1.222,0.514,0.946,0.875,�k��,2.8,�L
2017/08/13,20:20,0.949,1.493,0.986,1.786,1.224,0.515,0.946,0.873,�k��,2.0,�L
2017/08/13,20:30,0.948,1.491,0.986,1.786,1.222,0.514,0.944,0.874,�k��,3.2,�L
2017/08/13,20:40,0.949,1.492,0.988,1.784,1.222,0.514,0.945,0.871,�k�k��,3.3,�L
2017/08/13,20:50,0.948,1.491,0.987,1.786,1.223,0.514,0.945,0.872,�k��,3.5,�L
2017/08/13,21:00,0.947,1.492,0.987,1.785,1.224,0.513,0.944,0.875,�k�k��,4.1,�L
2017/08/13,21:10,0.946,1.490,0.986,1.785,1.222,0.515,0.946,0.872,�k�k��,4.1,�L
2017/08/13,21:20,0.947,1.489,0.985,1.783,1.223,0.512,0.945,0.872,�k�k��,4.1,�L
2017/08/13,21:30,0.946,1.489,0.984,1.783,1.222,0.514,0.945,0.873,�k�k��,3.8,�L
2017/08/13,21:40,0.947,1.489,0.987,1.783,1.222,0.514,0.947,0.873,�k�k��,3.3,�L
2017/08/13,21:50,0.945,1.491,0.986,1.785,1.222,0.515,0.945,0.874,�k�k��,3.6,�L
2017/08/13,22:00,0.945,1.490,0.986,1.784,1.221,0.513,0.947,0.872,�k�k��,3.8,�L
2017/08/13,22:10,0.945,1.491,0.985,1.788,1.222,0.514,0.949,0.874,�k�k��,3.4,�L
2017/08/13,22:20,0.944,1.490,0.985,1.785,1.224,0.513,0.947,0.872,�k��,3.5,�L
2017/08/13,22:30,0.946,1.492,0.985,1.785,1.221,0.515,0.947,0.875,�k�k��,3.3,�L
2017/08/13,22:40,0.945,1.489,0.985,1.788,1.223,0.516,0.948,0.871,�k��,3.1,�L
2017/08/13,22:50,0.943,1.485,0.985,1.785,1.221,0.513,0.945,0.873,�k��,3.3,�L
2017/08/13,23:00,0.944,1.486,0.985,1.784,1.222,0.514,0.946,0.871,�k��,3.2,�L
2017/08/13,23:10,0.942,1.485,0.984,1.783,1.219,0.514,0.945,0.872,�k�k��,4.0,�L
2017/08/13,23:20,0.943,1.485,0.986,1.784,1.220,0.512,0.944,0.870,�k�k��,3.2,�L
2017/08/13,23:30,0.943,1.484,0.983,1.787,1.220,0.514,0.944,0.873,�k�k��,3.6,�L
2017/08/13,23:40,0.945,1.483,0.985,1.781,1.221,0.513,0.945,0.872,�k�k��,3.8,�L
2017/08/13,23:50,0.944,1.484,0.982,1.782,1.220,0.513,0.944,0.871,�k�k��,3.7,�L
